Regional Weather Roundup
Issued by NWS

Home | Current Version | Previous Version | Text Only | Print | Product List | Glossary Off
Versions: 1 2 3 4 5 6 7 8 9 10 11 12 13 14 15 16 17 18 19 20 21 22 23 24 25 26 27 28 29 30 31 32 33 34 35 36 37 38 39 40 41 42 43 44 45 46 47 48 49 50

000
ASUS44 KMEG 302010
RWRTN
TENNESSEE HOURLY STATE WEATHER ROUNDUP
NATIONAL WEATHER SERVICE MEMPHIS TN
300 PM CDT SAT APR 30 2016

TNZ002-004-019-021-049-052-054-088>092-302100-
WEST TENNESSEE

CITY           SKY/WX    TMP DP  RH WIND       PRES   REMARKS
MEMPHIS INTL   CLOUDY    73  61  65 S8        29.78F
NWS MEMPHIS      N/A     71 N/A N/A MISG        N/A
JACKSON        CLOUDY    68  62  81 CALM      29.83F
DYERSBURG      CLOUDY    72  59  64 SE3         N/A
UNION CITY     MOSUNNY   72  64  78 SE6       29.80F
LEXINGTON      MOSUNNY   66  64  94 SE7       29.85F
$$

TNZ008-025-027-028-033-062-065-066-302100-
NORTH MIDDLE TENNESSEE

CITY           SKY/WX    TMP DP  RH WIND       PRES   REMARKS
NASHVILLE      CLOUDY    75  63  66 S5        29.88F
CLARKSVILLE    LGT RAIN  69  64  84 S6        29.86R
SMYRNA         CLOUDY    76  64  66 CALM      29.90F
COOKEVILLE     SUNNY     75  64  69 CALM      29.90F
CROSSVILLE     CLOUDY    72  59  63 S7        29.96F
$$

TNZ061-075-076-078-094-096-097-302100-
SOUTH MIDDLE TENNESSEE

CITY           SKY/WX    TMP DP  RH WIND       PRES   REMARKS
FAYETTEVILLE   SUNNY     77  64  65 SW5       29.91F
TULLAHOMA      MOSUNNY   73  66  78 W5        29.93S
WINCHESTER     MOSUNNY   81  61  50 VRB7      29.91S
MCMINNVILLE    SUNNY     77  64  65 SE9G228   29.91F
COLUMBIA       MOSUNNY   75  75 100 S9        29.88S
SHELBYVILLE    SUNNY     79  64  61 SW7       29.91F
$$

TNZ017-018-042-046-047-302100-
NORTHEAST TENNESSEE

CITY           SKY/WX    TMP DP  RH WIND       PRES   REMARKS
TRI CITIES     CLOUDY    80  57  45 N6        29.96F
$$

TNZ012-013-036-069-073-074-302100-
CENTRAL EAST TENNESSEE

CITY           SKY/WX    TMP DP  RH WIND       PRES   REMARKS
KNOXVILLE      CLOUDY    68  64  87 N7        29.95F
OAK RIDGE      RAIN      63  62  97 E8        29.95F FOG
GATLINBURG     CLEAR     70  57  64 CALM      29.97F
MORRISTOWN     PTCLDY    66  59  77 N9        29.99F
$$

TNZ083-085-099-302100-
SOUTHEAST TENNESSEE

CITY           SKY/WX    TMP DP  RH WIND       PRES   REMARKS
CHATTANOOGA    PTSUNNY   84  65  52 N5        29.89F
$$

SKY/WX REPORTED AS FAIR MEANS FEW OR NO CLOUDS BELOW
12 THOUSAND FEET.




USA.gov is the U.S. government's official web portal to all federal, state and local government web resources and services.